TimeEDT,TemperatureF,Dew PointF,Humidity,Sea Level PressureIn,VisibilityMPH,Wind Direction,Wind SpeedMPH,Gust SpeedMPH,PrecipitationIn,Events,Conditions,WindDirDegrees,DateUTC
12:58 AM,50.0,48.2,94,-9999,90.0,West,17.3,-,N/A,,Clear,270,2012-09-14 04:58:00
1:53 AM,48.9,47.5,95,-9999,80.0,West,12.7,-,N/A,,Clear,260,2012-09-14 05:53:00
2:55 AM,50.0,46.4,87,-9999,80.0,West,15.0,-,N/A,,Clear,260,2012-09-14 06:55:00
3:58 AM,53.6,28.4,38,-9999,80.0,West,15.0,-,N/A,,Clear,260,2012-09-14 07:58:00
4:59 AM,50.0,41.0,71,-9999,80.0,West,18.4,-,N/A,,Clear,280,2012-09-14 08:59:00
5:49 AM,50.0,37.4,62,-9999,70.0,West,13.8,-,N/A,,Partly Cloudy,280,2012-09-14 09:49:00
6:53 AM,51.8,39.2,62,-9999,60.0,West,4.6,-,N/A,,Partly Cloudy,280,2012-09-14 10:53:00
7:52 AM,53.6,26.6,35,-9999,60.0,West,8.1,-,N/A,,Partly Cloudy,260,2012-09-14 11:52:00
8:58 AM,53.6,44.6,72,-9999,50.0,SE,2.3,-,N/A,,Partly Cloudy,130,2012-09-14 12:58:00
9:56 AM,53.6,42.8,67,-9999,50.0,SE,6.9,-,N/A,,Partly Cloudy,140,2012-09-14 13:56:00
10:56 AM,55.4,42.8,63,-9999,45.0,SSW,6.9,-,N/A,,Partly Cloudy,200,2012-09-14 14:56:00
11:58 AM,55.4,42.8,63,-9999,45.0,South,10.4,-,N/A,,Partly Cloudy,180,2012-09-14 15:58:00
12:50 PM,57.2,46.4,67,-9999,45.0,SSW,10.4,-,N/A,,Scattered Clouds,210,2012-09-14 16:50:00
1:55 PM,57.2,48.2,72,-9999,45.0,SW,13.8,17.3,N/A,,Partly Cloudy,220,2012-09-14 17:55:00
2:49 PM,57.2,46.4,67,-9999,45.0,SW,11.5,18.4,N/A,,Scattered Clouds,220,2012-09-14 18:49:00
3:59 PM,55.4,51.8,88,-9999,45.0,SSW,10.4,-,N/A,,Mostly Cloudy,200,2012-09-14 19:59:00
4:50 PM,53.6,51.8,94,-9999,35.0,South,10.4,17.3,N/A,,Mostly Cloudy,190,2012-09-14 20:50:00
5:51 PM,53.6,48.2,82,-9999,35.0,SSW,11.5,20.7,N/A,,Overcast,210,2012-09-14 21:51:00
6:50 PM,51.8,51.8,100,-9999,0.2,South,15.0,-,N/A,Fog,Fog,180,2012-09-14 22:50:00
7:49 PM,50.0,50.0,100,-9999,0.0,South,27.6,31.1,N/A,Fog,Fog,170,2012-09-14 23:49:00
8:47 PM,50.0,50.0,100,-9999,0.0,South,32.2,36.8,N/A,Fog,Fog,180,2012-09-15 00:47:00
9:53 PM,48.2,42.8,82,-9999,80.0,SSW,31.1,-,N/A,Fog,Patches of Fog,210,2012-09-15 01:53:00
10:52 PM,50.0,48.2,94,-9999,0.1,WSW,29.9,35.7,N/A,,Mostly Cloudy,250,2012-09-15 02:52:00
11:56 PM,48.2,42.8,82,-9999,70.0,West,36.8,41.4,N/A,,Mostly Cloudy,260,2012-09-15 03:56:00